TimeMDT,TemperatureF,Dew PointF,Humidity,Sea Level PressureIn,VisibilityMPH,Wind Direction,Wind SpeedMPH,Gust SpeedMPH,PrecipitationIn,Events,Conditions,WindDirDegrees,DateUTC
12:38 AM,37.4,28.4,70,30.01,10.0,North,13.8,-,N/A,,Overcast,10,2013-04-21 06:38:00
12:53 AM,36.0,27.0,70,30.09,10.0,NNE,4.6,-,N/A,,Overcast,20,2013-04-21 06:53:00
1:53 AM,35.1,25.0,67,30.12,10.0,NNW,8.1,-,N/A,,Overcast,330,2013-04-21 07:53:00
2:41 AM,32.0,26.6,80,30.06,2.5,NNW,8.1,-,0.00,Snow,Light Snow,330,2013-04-21 08:41:00
2:53 AM,30.9,27.0,85,30.13,1.2,WNW,4.6,-,0.01,Snow,Light Snow,300,2013-04-21 08:53:00
3:09 AM,30.2,26.6,86,30.06,1.0,WNW,6.9,-,0.01,Snow,Light Snow,300,2013-04-21 09:09:00
3:42 AM,28.4,26.6,93,30.07,0.8,NW,9.2,-,0.03,Snow,Light Snow,310,2013-04-21 09:42:00
3:53 AM,28.9,27.0,92,30.15,1.0,NW,9.2,-,0.04,Snow,Light Snow,320,2013-04-21 09:53:00
4:15 AM,28.4,26.6,93,30.08,0.8,NW,11.5,-,0.01,Snow,Light Snow,310,2013-04-21 10:15:00
4:36 AM,28.4,26.6,93,30.09,0.8,NW,11.5,-,0.04,Snow,Light Snow,310,2013-04-21 10:36:00
4:53 AM,27.0,25.0,92,30.18,0.8,WNW,11.5,-,0.06,Snow,Light Snow,290,2013-04-21 10:53:00
5:00 AM,26.6,24.8,93,30.10,1.2,WNW,11.5,-,0.00,Snow,Light Snow,290,2013-04-21 11:00:00
5:18 AM,26.6,24.8,93,30.11,1.2,WNW,9.2,-,0.01,Snow,Light Snow,290,2013-04-21 11:18:00
5:26 AM,26.6,24.8,93,30.11,2.0,WNW,10.4,-,0.01,Snow,Light Snow,290,2013-04-21 11:26:00
5:38 AM,26.6,24.8,93,30.11,1.5,WNW,9.2,-,0.01,Snow,Light Snow,300,2013-04-21 11:38:00
5:43 AM,26.6,24.8,93,30.11,1.2,WNW,11.5,-,0.01,Snow,Light Snow,290,2013-04-21 11:43:00
5:53 AM,27.0,24.1,89,30.21,1.0,WNW,9.2,-,0.02,Snow,Light Snow,290,2013-04-21 11:53:00
6:17 AM,26.6,24.8,93,30.12,1.8,West,10.4,-,0.00,Snow,Light Snow,280,2013-04-21 12:17:00
6:26 AM,26.6,24.8,93,30.12,2.5,West,10.4,-,0.00,Snow,Light Snow,270,2013-04-21 12:26:00
6:33 AM,26.6,24.8,93,30.12,3.0,West,10.4,-,0.00,Snow,Light Snow,270,2013-04-21 12:33:00
6:43 AM,26.6,24.8,93,30.12,6.0,West,10.4,-,0.00,Snow,Light Snow,260,2013-04-21 12:43:00
6:53 AM,27.0,23.0,85,30.23,6.0,West,11.5,-,0.00,Snow,Light Snow,270,2013-04-21 12:53:00
7:53 AM,28.0,21.9,78,30.24,10.0,West,9.2,-,0.00,,Overcast,280,2013-04-21 13:53:00
8:14 AM,26.6,21.2,80,30.14,10.0,WNW,10.4,-,N/A,,Overcast,290,2013-04-21 14:14:00
8:53 AM,27.0,21.0,78,30.25,10.0,WNW,8.1,-,N/A,,Overcast,300,2013-04-21 14:53:00
9:06 AM,28.4,19.4,69,30.14,10.0,WNW,5.8,-,N/A,,Overcast,290,2013-04-21 15:06:00
9:53 AM,28.9,21.0,72,30.24,10.0,WNW,6.9,-,N/A,,Overcast,300,2013-04-21 15:53:00
10:23 AM,28.4,21.2,74,30.13,10.0,NW,10.4,-,N/A,,Overcast,310,2013-04-21 16:23:00
10:36 AM,28.4,21.2,74,30.13,10.0,NW,6.9,-,N/A,,Overcast,310,2013-04-21 16:36:00
10:53 AM,28.9,21.9,75,30.24,10.0,NW,9.2,-,N/A,,Overcast,310,2013-04-21 16:53:00
11:00 AM,28.4,21.2,74,30.12,10.0,NW,8.1,-,N/A,,Overcast,310,2013-04-21 17:00:00
11:32 AM,30.2,23.0,75,30.12,4.0,WNW,9.2,-,0.00,,Haze,300,2013-04-21 17:32:00
11:49 AM,28.4,21.2,74,30.12,2.0,WNW,9.2,-,0.00,Snow,Light Snow,300,2013-04-21 17:49:00
11:53 AM,30.0,23.0,75,30.24,2.0,NW,9.2,-,0.01,Snow,Light Snow,310,2013-04-21 17:53:00
12:09 PM,30.2,24.8,80,30.11,6.0,NNW,9.2,-,0.00,,Haze,330,2013-04-21 18:09:00
12:53 PM,30.9,21.9,69,30.23,10.0,NNW,10.4,-,0.00,,Mostly Cloudy,340,2013-04-21 18:53:00
1:36 PM,30.2,23.0,75,30.09,1.8,NW,16.1,20.7,0.00,Snow,Light Snow,320,2013-04-21 19:36:00
1:49 PM,32.0,24.8,75,30.09,3.0,NNW,8.1,16.1,0.00,Snow,Light Snow,330,2013-04-21 19:49:00
1:50 PM,32.0,23.0,69,30.22,3.0,NNW,9.2,16.1,0.00,Snow,Light Snow,330,2013-04-21 19:50:00
2:02 PM,32.0,21.2,64,30.09,9.0,NNW,11.5,19.6,0.00,,Overcast,340,2013-04-21 20:02:00
2:33 PM,30.2,21.2,69,30.10,2.5,North,15.0,24.2,0.00,Snow,Light Snow,350,2013-04-21 20:33:00
2:46 PM,30.2,21.2,69,30.10,7.0,North,19.6,-,0.00,,Overcast,350,2013-04-21 20:46:00
2:53 PM,30.0,19.9,66,30.25,10.0,NNW,18.4,-,0.00,,Overcast,340,2013-04-21 20:53:00
3:03 PM,28.4,21.2,74,30.11,1.8,North,17.3,-,0.00,Snow,Light Snow,350,2013-04-21 21:03:00
3:06 PM,28.4,21.2,74,30.11,0.8,NNW,15.0,-,0.00,Snow,Light Snow,340,2013-04-21 21:06:00
3:20 PM,30.2,23.0,75,30.12,1.5,NNW,13.8,20.7,0.00,Snow,Light Snow,340,2013-04-21 21:20:00
3:37 PM,28.4,24.8,86,30.12,0.8,NNW,13.8,-,0.00,Snow,Light Snow,330,2013-04-21 21:37:00
3:48 PM,28.4,23.0,80,30.11,1.0,North,11.5,-,0.00,Snow,Light Snow,360,2013-04-21 21:48:00
3:51 PM,30.2,21.2,69,30.11,2.5,North,18.4,24.2,0.00,Snow,Light Snow,360,2013-04-21 21:51:00
3:53 PM,30.0,21.0,69,30.27,4.0,North,18.4,24.2,0.00,Snow,Light Snow,10,2013-04-21 21:53:00
4:14 PM,28.4,19.4,69,30.11,10.0,NNW,19.6,-,0.00,,Overcast,340,2013-04-21 22:14:00
4:30 PM,28.4,19.4,69,30.12,2.0,NNW,20.7,26.5,0.00,Snow,Light Snow,340,2013-04-21 22:30:00
4:43 PM,26.6,21.2,80,30.13,0.8,North,15.0,-,0.00,Snow,Light Snow,350,2013-04-21 22:43:00
4:48 PM,28.4,21.2,74,30.13,1.5,North,12.7,-,0.00,Snow,Light Snow,360,2013-04-21 22:48:00
4:53 PM,28.0,21.0,75,30.30,3.0,NNW,13.8,-,0.00,Snow,Light Snow,340,2013-04-21 22:53:00
5:14 PM,28.4,19.4,69,30.13,10.0,North,15.0,-,0.00,,Overcast,360,2013-04-21 23:14:00
5:53 PM,27.0,18.0,69,30.30,10.0,North,15.0,-,0.00,,Overcast,350,2013-04-21 23:53:00
6:32 PM,26.6,17.6,69,30.16,2.5,North,19.6,25.3,0.00,Snow,Light Snow,350,2013-04-22 00:32:00
6:38 PM,26.6,19.4,74,30.16,1.2,NNW,18.4,25.3,0.00,Snow,Light Snow,330,2013-04-22 00:38:00
6:46 PM,24.8,21.2,86,30.17,0.5,NNW,17.3,-,0.00,Fog-Snow,Snow,340,2013-04-22 00:46:00
6:51 PM,24.8,21.2,86,30.17,0.5,NNW,15.0,-,0.01,Fog-Snow,Snow,330,2013-04-22 00:51:00
6:53 PM,24.1,21.0,88,30.36,0.5,NNW,13.8,-,0.01,Fog-Snow,Snow,340,2013-04-22 00:53:00
7:08 PM,23.0,21.2,93,30.18,0.5,NNW,9.2,-,0.01,Fog-Snow,Snow,330,2013-04-22 01:08:00
7:24 PM,23.0,19.4,86,30.18,0.2,NW,8.1,-,0.02,Fog-Snow,Heavy Snow,310,2013-04-22 01:24:00
7:40 PM,23.0,19.4,86,30.19,0.5,WNW,8.1,-,0.04,Fog-Snow,Snow,290,2013-04-22 01:40:00
7:48 PM,23.0,19.4,86,30.19,0.5,WNW,9.2,-,0.04,Fog-Snow,Snow,300,2013-04-22 01:48:00
7:53 PM,23.0,19.9,88,30.37,0.5,WNW,10.4,-,0.05,Fog-Snow,Snow,300,2013-04-22 01:53:00
8:35 PM,21.2,19.4,93,30.20,1.0,West,9.2,-,0.02,Snow,Light Snow,270,2013-04-22 02:35:00
8:46 PM,21.2,19.4,93,30.21,1.5,West,8.1,-,0.02,Snow,Light Snow,280,2013-04-22 02:46:00
8:53 PM,23.0,19.9,88,30.39,1.5,WNW,8.1,-,0.02,Snow,Light Snow,300,2013-04-22 02:53:00
9:04 PM,23.0,19.4,86,30.21,2.5,NW,8.1,-,0.00,Snow,Light Snow,320,2013-04-22 03:04:00
9:25 PM,23.0,19.4,86,30.22,3.0,NW,6.9,-,0.01,Snow,Light Snow,320,2013-04-22 03:25:00
9:35 PM,23.0,17.6,80,30.22,2.0,NW,6.9,-,0.01,Snow,Light Snow,310,2013-04-22 03:35:00
9:53 PM,23.0,18.0,81,30.41,2.5,WNW,8.1,-,0.01,Snow,Light Snow,300,2013-04-22 03:53:00
10:22 PM,23.0,17.6,80,30.24,3.0,WNW,8.1,-,0.00,Snow,Light Snow,290,2013-04-22 04:22:00
10:40 PM,23.0,17.6,80,30.24,7.0,WNW,9.2,-,0.00,Snow,Light Snow,290,2013-04-22 04:40:00
10:53 PM,23.0,17.1,78,30.43,7.0,WNW,9.2,-,0.00,Snow,Light Snow,300,2013-04-22 04:53:00
11:53 PM,23.0,16.0,74,30.41,10.0,NW,5.8,-,0.00,,Overcast,310,2013-04-22 05:53:00